Location: C�mpuri de-Sus
(45.9500°N, 22.5500°E)
Time: 12:07:11
(UTC+00:00)

Cosmos 2278 Rocket - Pass Details

Date: 03 June 2022
Orbit: 840 x 846 km, 71.0° (Epoch: 01 July)

Event Time Altitude Azimuth Distance (km) Brightness Sun altitude
Rises 21:42:47 0° 330° (NNW) 3,416 6.7 -20.9°
Reaches altitude 10° 21:45:16 10° 327° (NNW) 2,477 5.6 -21.0°
Maximum altitude 21:50:51 60° 249° (WSW) 963 2.4 -21.1°
Enters shadow 21:52:34 42° 192° (SSW) 1,192 2.5 -21.2°
